Year,Month,Day,Hour,Minute,Value (Times are PST for temperature in C)
2010,08,14,00,00,19.10
2010,08,14,00,01,19.10
2010,08,14,00,02,19.10
2010,08,14,00,03,19.20
2010,08,14,00,04,19.20
2010,08,14,00,05,19.10
2010,08,14,00,06,19.10
2010,08,14,00,07,19.20
2010,08,14,00,08,19.20
2010,08,14,00,09,19.20
2010,08,14,00,10,19.20
2010,08,14,00,11,19.20
2010,08,14,00,12,19.20
2010,08,14,00,13,19.20
2010,08,14,00,14,19.30
2010,08,14,00,15,19.30
2010,08,14,00,16,19.30
2010,08,14,00,17,19.30
2010,08,14,00,18,19.30
2010,08,14,00,19,19.40
2010,08,14,00,20,19.40
2010,08,14,00,21,19.40
2010,08,14,00,22,19.40
2010,08,14,00,23,19.40
2010,08,14,00,24,19.40
2010,08,14,00,25,19.50
2010,08,14,00,26,19.50
2010,08,14,00,27,19.50
2010,08,14,00,28,19.50
2010,08,14,00,29,19.50
2010,08,14,00,30,19.50
2010,08,14,00,31,19.50
2010,08,14,00,32,19.60
2010,08,14,00,33,19.60
2010,08,14,00,34,19.60
2010,08,14,00,35,19.60
2010,08,14,00,36,19.60
2010,08,14,00,37,19.50
2010,08,14,00,38,19.50
2010,08,14,00,39,19.50
2010,08,14,00,40,19.50
2010,08,14,00,41,19.50
2010,08,14,00,42,19.40
2010,08,14,00,43,19.40
2010,08,14,00,44,19.40
2010,08,14,00,45,19.30
2010,08,14,00,46,19.30
2010,08,14,00,47,19.30
2010,08,14,00,48,19.20
2010,08,14,00,49,19.20
2010,08,14,00,50,19.10
2010,08,14,00,51,19.10
2010,08,14,00,52,19.10
2010,08,14,00,53,19.10
2010,08,14,00,54,19.00
2010,08,14,00,55,18.90
2010,08,14,00,56,18.90
2010,08,14,00,57,18.90
2010,08,14,00,58,18.90
2010,08,14,00,59,18.80
2010,08,14,01,00,18.70
2010,08,14,01,01,18.70
2010,08,14,01,02,18.60
2010,08,14,01,03,18.60
2010,08,14,01,04,18.50
2010,08,14,01,05,18.50
2010,08,14,01,06,18.40
2010,08,14,01,07,18.40
2010,08,14,01,08,18.40
2010,08,14,01,09,18.40
2010,08,14,01,10,18.30
2010,08,14,01,11,18.30
2010,08,14,01,12,18.30
2010,08,14,01,13,18.30
2010,08,14,01,14,18.20
2010,08,14,01,15,18.20
2010,08,14,01,16,18.20
2010,08,14,01,17,18.20
2010,08,14,01,18,18.20
2010,08,14,01,19,18.20
2010,08,14,01,20,18.20
2010,08,14,01,21,18.20
2010,08,14,01,22,18.20
2010,08,14,01,23,18.20
2010,08,14,01,24,18.20
2010,08,14,01,25,18.20
2010,08,14,01,26,18.20
2010,08,14,01,27,18.20
2010,08,14,01,28,18.20
2010,08,14,01,29,18.20
2010,08,14,01,30,18.20
2010,08,14,01,31,18.20
2010,08,14,01,32,18.30
2010,08,14,01,33,18.30
2010,08,14,01,34,18.30
2010,08,14,01,35,18.30
2010,08,14,01,36,18.30
2010,08,14,01,37,18.30
2010,08,14,01,38,18.30
2010,08,14,01,39,18.30
2010,08,14,01,40,18.30
2010,08,14,01,41,18.30
2010,08,14,01,42,18.40
2010,08,14,01,43,18.40
2010,08,14,01,44,18.40
2010,08,14,01,45,18.40
2010,08,14,01,46,18.40
2010,08,14,01,47,18.40
2010,08,14,01,48,18.50
2010,08,14,01,49,18.50
2010,08,14,01,50,18.50
2010,08,14,01,51,18.60
2010,08,14,01,52,18.60
2010,08,14,01,53,18.60
2010,08,14,01,54,18.70
2010,08,14,01,55,18.70
2010,08,14,01,56,18.70
2010,08,14,01,57,18.70
2010,08,14,01,58,18.70
2010,08,14,01,59,18.80
2010,08,14,02,00,18.80
2010,08,14,02,01,18.90
2010,08,14,02,02,18.90
2010,08,14,02,03,19.00
2010,08,14,02,04,19.10
2010,08,14,02,05,19.10
2010,08,14,02,06,19.20
2010,08,14,02,07,19.40
2010,08,14,02,08,19.50
2010,08,14,02,09,19.70
2010,08,14,02,10,19.90
2010,08,14,02,11,20.10
2010,08,14,02,12,20.40
2010,08,14,02,13,20.70
2010,08,14,02,14,20.80
2010,08,14,02,15,21.00
2010,08,14,02,16,21.20
2010,08,14,02,17,21.30
2010,08,14,02,18,21.40
2010,08,14,02,19,21.60
2010,08,14,02,20,21.60
2010,08,14,02,21,21.60
2010,08,14,02,22,21.60
2010,08,14,02,23,21.60
2010,08,14,02,24,21.60
2010,08,14,02,25,21.60
2010,08,14,02,26,21.60
2010,08,14,02,27,21.60
2010,08,14,02,28,21.60
2010,08,14,02,29,21.60
2010,08,14,02,30,21.60
2010,08,14,02,31,21.60
2010,08,14,02,32,21.60
2010,08,14,02,33,21.60
2010,08,14,02,34,21.60
2010,08,14,02,35,21.60
2010,08,14,02,36,21.60
2010,08,14,02,37,21.60
2010,08,14,02,38,21.50
2010,08,14,02,39,21.40
2010,08,14,02,40,21.30
2010,08,14,02,41,21.30
2010,08,14,02,42,21.30
2010,08,14,02,43,21.20
2010,08,14,02,44,21.10
2010,08,14,02,45,21.10
2010,08,14,02,46,21.00
2010,08,14,02,47,21.00
2010,08,14,02,48,20.90
2010,08,14,02,49,20.80
2010,08,14,02,50,20.70
2010,08,14,02,51,20.60
2010,08,14,02,52,20.50
2010,08,14,02,53,20.40
2010,08,14,02,54,20.30
2010,08,14,02,55,20.20
2010,08,14,02,56,20.10
2010,08,14,02,57,20.00
2010,08,14,02,58,19.90
2010,08,14,02,59,19.80
2010,08,14,03,00,19.70
2010,08,14,03,01,19.70
2010,08,14,03,02,19.60
2010,08,14,03,03,19.50
2010,08,14,03,04,19.50
2010,08,14,03,05,19.50
2010,08,14,03,06,19.50
2010,08,14,03,07,19.50
2010,08,14,03,08,19.50
2010,08,14,03,09,19.50
2010,08,14,03,10,19.50
2010,08,14,03,11,19.60
2010,08,14,03,12,19.60
2010,08,14,03,13,19.60
2010,08,14,03,14,19.70
2010,08,14,03,15,19.70
2010,08,14,03,16,19.80
2010,08,14,03,17,19.90
2010,08,14,03,18,19.90
2010,08,14,03,19,20.10
2010,08,14,03,20,20.20
2010,08,14,03,21,20.30
2010,08,14,03,22,20.50
2010,08,14,03,23,20.70
2010,08,14,03,24,20.80
2010,08,14,03,25,20.90
2010,08,14,03,26,21.00
2010,08,14,03,27,21.10
2010,08,14,03,28,21.10
2010,08,14,03,29,21.00
2010,08,14,03,30,21.00
2010,08,14,03,31,21.00
2010,08,14,03,32,20.90
2010,08,14,03,33,20.80
2010,08,14,03,34,20.80
2010,08,14,03,35,20.70
2010,08,14,03,36,20.50
2010,08,14,03,37,20.40
2010,08,14,03,38,20.20
2010,08,14,03,39,20.20
2010,08,14,03,40,20.00
2010,08,14,03,41,19.90
2010,08,14,03,42,19.80
2010,08,14,03,43,19.70
2010,08,14,03,44,19.60
2010,08,14,03,45,19.60
2010,08,14,03,46,19.50
2010,08,14,03,47,19.40
2010,08,14,03,48,19.40
2010,08,14,03,49,19.30
2010,08,14,03,50,19.30
2010,08,14,03,51,19.30
2010,08,14,03,52,19.20
2010,08,14,03,53,19.20
2010,08,14,03,54,19.20
2010,08,14,03,55,19.20
2010,08,14,03,56,19.30
2010,08,14,03,57,19.40
2010,08,14,03,58,19.50
2010,08,14,03,59,19.60
2010,08,14,04,00,19.70
2010,08,14,04,01,19.80
2010,08,14,04,02,19.90
2010,08,14,04,03,19.90
2010,08,14,04,04,20.00
2010,08,14,04,05,20.10
2010,08,14,04,06,20.20
2010,08,14,04,07,20.30
2010,08,14,04,08,20.40
2010,08,14,04,09,20.50
2010,08,14,04,10,20.60
2010,08,14,04,11,20.70
2010,08,14,04,12,20.80
2010,08,14,04,13,20.90
2010,08,14,04,14,20.90
2010,08,14,04,15,21.00
2010,08,14,04,16,21.00
2010,08,14,04,17,21.00
2010,08,14,04,18,21.00
2010,08,14,04,19,21.00
2010,08,14,04,20,21.00
2010,08,14,04,21,21.00
2010,08,14,04,22,21.00
2010,08,14,04,23,21.00
2010,08,14,04,24,21.00
2010,08,14,04,25,21.10
2010,08,14,04,26,21.10
2010,08,14,04,27,21.20
2010,08,14,04,28,21.20
2010,08,14,04,29,21.20
2010,08,14,04,30,21.20
2010,08,14,04,31,21.20
2010,08,14,04,32,21.30
2010,08,14,04,33,21.30
2010,08,14,04,34,21.30
2010,08,14,04,35,21.30
2010,08,14,04,36,21.30
2010,08,14,04,37,21.30
2010,08,14,04,38,21.30
2010,08,14,04,39,21.30
2010,08,14,04,40,21.30
2010,08,14,04,41,21.30
2010,08,14,04,42,21.30
2010,08,14,04,43,21.30
2010,08,14,04,44,21.30
2010,08,14,04,45,21.30
2010,08,14,04,46,21.30
2010,08,14,04,47,21.30
2010,08,14,04,48,21.30
2010,08,14,04,49,21.30
2010,08,14,04,50,21.30
2010,08,14,04,51,21.30
2010,08,14,04,52,21.30
2010,08,14,04,53,21.30
2010,08,14,04,54,21.20
2010,08,14,04,55,21.20
2010,08,14,04,56,21.10
2010,08,14,04,57,21.10
2010,08,14,04,58,21.10
2010,08,14,04,59,21.10
2010,08,14,05,00,21.10
2010,08,14,05,01,21.10
2010,08,14,05,02,21.10
2010,08,14,05,03,21.10
2010,08,14,05,04,21.10
2010,08,14,05,05,21.10
2010,08,14,05,06,21.00
2010,08,14,05,07,21.00
2010,08,14,05,08,21.00
2010,08,14,05,09,21.10
2010,08,14,05,10,21.10
2010,08,14,05,11,21.20
2010,08,14,05,12,21.20
2010,08,14,05,13,21.20
2010,08,14,05,14,21.30
2010,08,14,05,15,21.30
2010,08,14,05,16,21.30
2010,08,14,05,17,21.30
2010,08,14,05,18,21.30
2010,08,14,05,19,21.20
2010,08,14,05,20,21.20
2010,08,14,05,21,21.20
2010,08,14,05,22,21.20
2010,08,14,05,23,21.20
2010,08,14,05,24,21.20
2010,08,14,05,25,21.20
2010,08,14,05,26,21.20
2010,08,14,05,27,21.20
2010,08,14,05,28,21.20
2010,08,14,05,29,21.10
2010,08,14,05,30,21.10
2010,08,14,05,31,21.10
2010,08,14,05,32,21.00
2010,08,14,05,33,21.00
2010,08,14,05,34,20.90
2010,08,14,05,35,20.90
2010,08,14,05,36,20.90
2010,08,14,05,37,20.80
2010,08,14,05,38,20.80
2010,08,14,05,39,20.70
2010,08,14,05,40,20.70
2010,08,14,05,41,20.60
2010,08,14,05,42,20.60
2010,08,14,05,43,20.50
2010,08,14,05,44,20.50
2010,08,14,05,45,20.40
2010,08,14,05,46,20.40
2010,08,14,05,47,20.30
2010,08,14,05,48,20.30
2010,08,14,05,49,20.30
2010,08,14,05,50,20.30
2010,08,14,05,51,20.20
2010,08,14,05,52,20.20
2010,08,14,05,53,20.20
2010,08,14,05,54,20.20
2010,08,14,05,55,20.20
2010,08,14,05,56,20.10
2010,08,14,05,57,20.10
2010,08,14,05,58,20.00
2010,08,14,05,59,19.90
2010,08,14,06,00,19.90
2010,08,14,06,01,19.90
2010,08,14,06,02,19.90
2010,08,14,06,03,19.90
2010,08,14,06,04,19.90
2010,08,14,06,05,19.90
2010,08,14,06,06,19.90
2010,08,14,06,07,19.90
2010,08,14,06,08,19.90
2010,08,14,06,09,19.90
2010,08,14,06,10,20.00
2010,08,14,06,11,20.10
2010,08,14,06,12,20.10
2010,08,14,06,13,20.20
2010,08,14,06,14,20.20
2010,08,14,06,15,20.20
2010,08,14,06,16,20.30
2010,08,14,06,17,20.30
2010,08,14,06,18,20.40
2010,08,14,06,19,20.50
2010,08,14,06,20,20.50
2010,08,14,06,21,20.50
2010,08,14,06,22,20.50
2010,08,14,06,23,20.60
2010,08,14,06,24,20.60
2010,08,14,06,25,20.60
2010,08,14,06,26,20.50
2010,08,14,06,27,20.50
2010,08,14,06,28,20.50
2010,08,14,06,29,20.50
2010,08,14,06,30,20.50
2010,08,14,06,31,20.50
2010,08,14,06,32,20.50
2010,08,14,06,33,20.40
2010,08,14,06,34,20.40
2010,08,14,06,35,20.40
2010,08,14,06,36,20.40
2010,08,14,06,37,20.40
2010,08,14,06,38,20.40
2010,08,14,06,39,20.40
2010,08,14,06,40,20.40
2010,08,14,06,41,20.30
2010,08,14,06,42,20.30
2010,08,14,06,43,20.30
2010,08,14,06,44,20.30
2010,08,14,06,45,20.30
2010,08,14,06,46,20.40
2010,08,14,06,47,20.40
2010,08,14,06,48,20.50
2010,08,14,06,49,20.50
2010,08,14,06,50,20.60
2010,08,14,06,51,20.70
2010,08,14,06,52,20.80
2010,08,14,06,53,20.80
2010,08,14,06,54,20.90
2010,08,14,06,55,21.00
2010,08,14,06,56,21.00
2010,08,14,06,57,21.10
2010,08,14,06,58,21.10
2010,08,14,06,59,21.10
2010,08,14,07,00,21.10
2010,08,14,07,01,21.10
2010,08,14,07,02,21.10
2010,08,14,07,03,21.20
2010,08,14,07,04,21.20
2010,08,14,07,05,21.30
2010,08,14,07,06,21.30
2010,08,14,07,07,21.30
2010,08,14,07,08,21.30
2010,08,14,07,09,21.30
2010,08,14,07,10,21.30
2010,08,14,07,11,21.40
2010,08,14,07,12,21.40
2010,08,14,07,13,21.40
2010,08,14,07,14,21.40
2010,08,14,07,15,21.60
2010,08,14,07,16,21.60
2010,08,14,07,17,21.60
2010,08,14,07,18,21.60
2010,08,14,07,19,21.60
2010,08,14,07,20,21.70
2010,08,14,07,21,21.70
2010,08,14,07,22,21.70
2010,08,14,07,23,21.80
2010,08,14,07,24,21.80
2010,08,14,07,25,21.80
2010,08,14,07,26,21.80
2010,08,14,07,27,21.80
2010,08,14,07,28,21.90
2010,08,14,07,29,21.90
2010,08,14,07,30,21.90
2010,08,14,07,31,22.00
2010,08,14,07,32,22.00
2010,08,14,07,33,22.00
2010,08,14,07,34,22.10
2010,08,14,07,35,22.10
2010,08,14,07,36,22.10
2010,08,14,07,37,22.10
2010,08,14,07,38,22.10
2010,08,14,07,39,22.10
2010,08,14,07,40,22.10
2010,08,14,07,41,22.10
2010,08,14,07,42,22.10
2010,08,14,07,43,22.00
2010,08,14,07,44,22.00
2010,08,14,07,45,21.90
2010,08,14,07,46,21.90
2010,08,14,07,47,21.80
2010,08,14,07,48,21.70
2010,08,14,07,49,21.70
2010,08,14,07,50,21.70
2010,08,14,07,51,21.80
2010,08,14,07,52,21.80
2010,08,14,07,53,21.80
2010,08,14,07,54,21.80
2010,08,14,07,55,21.90
2010,08,14,07,56,21.90
2010,08,14,07,57,22.00
2010,08,14,07,58,22.10
2010,08,14,07,59,22.10
2010,08,14,08,00,22.20
2010,08,14,08,01,22.30
2010,08,14,08,02,22.40
2010,08,14,08,03,22.40
2010,08,14,08,04,22.50
2010,08,14,08,05,22.50
2010,08,14,08,06,22.60
2010,08,14,08,07,22.60
2010,08,14,08,08,22.70
2010,08,14,08,09,22.80
2010,08,14,08,10,22.90
2010,08,14,08,11,22.90
2010,08,14,08,12,22.90
2010,08,14,08,13,22.90
2010,08,14,08,14,22.90
2010,08,14,08,15,23.00
2010,08,14,08,16,23.10
2010,08,14,08,17,23.10
2010,08,14,08,18,23.10
2010,08,14,08,19,23.10
2010,08,14,08,20,23.10
2010,08,14,08,21,23.10
2010,08,14,08,22,23.10
2010,08,14,08,23,23.10
2010,08,14,08,24,23.10
2010,08,14,08,25,23.10
2010,08,14,08,26,23.10
2010,08,14,08,27,23.10
2010,08,14,08,28,23.10
2010,08,14,08,29,23.20
2010,08,14,08,30,23.20
2010,08,14,08,31,23.20
2010,08,14,08,32,23.30
2010,08,14,08,33,23.30
2010,08,14,08,34,23.30
2010,08,14,08,35,23.30
2010,08,14,08,36,23.40
2010,08,14,08,37,23.40
2010,08,14,08,38,23.50
2010,08,14,08,39,23.60
2010,08,14,08,40,23.60
2010,08,14,08,41,23.60
2010,08,14,08,42,23.60
2010,08,14,08,43,23.60
2010,08,14,08,44,23.70
2010,08,14,08,45,23.70
2010,08,14,08,46,23.70
2010,08,14,08,47,23.70
2010,08,14,08,48,23.70
2010,08,14,08,49,23.70
2010,08,14,08,50,23.70
2010,08,14,08,51,23.70
2010,08,14,08,52,23.70
2010,08,14,08,53,23.70
2010,08,14,08,54,23.70
2010,08,14,08,55,23.70
2010,08,14,08,56,23.70
2010,08,14,08,57,23.70
2010,08,14,08,58,23.70
2010,08,14,08,59,23.70
2010,08,14,09,00,23.80
2010,08,14,09,01,23.80
2010,08,14,09,02,23.80
2010,08,14,09,03,23.80
2010,08,14,09,04,23.90
2010,08,14,09,05,23.90
2010,08,14,09,06,23.90
2010,08,14,09,07,23.90
2010,08,14,09,08,23.90
2010,08,14,09,09,23.90
2010,08,14,09,10,23.90
2010,08,14,09,11,23.90
2010,08,14,09,12,24.00
2010,08,14,09,13,24.10
2010,08,14,09,14,24.10
2010,08,14,09,15,24.10
2010,08,14,09,16,24.10
2010,08,14,09,17,24.10
2010,08,14,09,18,24.10
2010,08,14,09,19,24.10
2010,08,14,09,20,24.10
2010,08,14,09,21,24.10
2010,08,14,09,22,24.10
2010,08,14,09,23,24.10
2010,08,14,09,24,24.10
2010,08,14,09,25,24.10
2010,08,14,09,26,24.10
2010,08,14,09,27,24.10
2010,08,14,09,28,24.10
2010,08,14,09,29,24.10
2010,08,14,09,30,24.10
2010,08,14,09,31,24.10
2010,08,14,09,32,24.10
2010,08,14,09,33,24.10
2010,08,14,09,34,24.10
2010,08,14,09,35,24.10
2010,08,14,09,36,24.10
2010,08,14,09,37,24.10
2010,08,14,09,38,24.10
2010,08,14,09,39,24.10
2010,08,14,09,40,24.10
2010,08,14,09,41,24.10
2010,08,14,09,42,24.10
2010,08,14,09,43,24.10
2010,08,14,09,44,24.10
2010,08,14,09,45,24.10
2010,08,14,09,46,24.10
2010,08,14,09,47,24.10
2010,08,14,09,48,24.10
2010,08,14,09,49,24.10
2010,08,14,09,50,24.10
2010,08,14,09,51,24.20
2010,08,14,09,52,24.20
2010,08,14,09,53,24.30
2010,08,14,09,54,24.30
2010,08,14,09,55,24.30
2010,08,14,09,56,24.30
2010,08,14,09,57,24.30
2010,08,14,09,58,24.30
2010,08,14,09,59,24.40
2010,08,14,10,00,24.40
2010,08,14,10,01,24.40
2010,08,14,10,02,24.50
2010,08,14,10,03,24.50
2010,08,14,10,04,24.50
2010,08,14,10,05,24.50
2010,08,14,10,06,24.60
2010,08,14,10,07,24.70
2010,08,14,10,08,24.70
2010,08,14,10,09,24.70
2010,08,14,10,10,24.80
2010,08,14,10,11,24.80
2010,08,14,10,12,24.90
2010,08,14,10,13,25.00
2010,08,14,10,14,25.00
2010,08,14,10,15,25.10
2010,08,14,10,16,25.10
2010,08,14,10,17,25.10
2010,08,14,10,18,25.10
2010,08,14,10,19,25.10
2010,08,14,10,20,25.00
2010,08,14,10,21,25.00
2010,08,14,10,22,25.00
2010,08,14,10,23,24.90
2010,08,14,10,24,24.90
2010,08,14,10,25,24.90
2010,08,14,10,26,24.80
2010,08,14,10,27,24.90
2010,08,14,10,28,24.90
2010,08,14,10,29,25.00
2010,08,14,10,30,25.10
2010,08,14,10,31,25.10
2010,08,14,10,32,25.20
2010,08,14,10,33,25.20
2010,08,14,10,34,25.10
2010,08,14,10,35,25.10
2010,08,14,10,36,25.10
2010,08,14,10,37,25.20
2010,08,14,10,38,25.20
2010,08,14,10,39,25.30
2010,08,14,10,40,25.30
2010,08,14,10,41,25.30
2010,08,14,10,42,25.30
2010,08,14,10,43,25.20
2010,08,14,10,44,25.30
2010,08,14,10,45,25.30
2010,08,14,10,46,25.40
2010,08,14,10,47,25.40
2010,08,14,10,48,25.40
2010,08,14,10,49,25.40
2010,08,14,10,50,25.40
2010,08,14,10,51,25.50
2010,08,14,10,52,25.60
2010,08,14,10,53,25.60
2010,08,14,10,54,25.70
2010,08,14,10,55,25.80
2010,08,14,10,56,25.80
2010,08,14,10,57,25.90
2010,08,14,10,58,26.00
2010,08,14,10,59,26.00
2010,08,14,11,00,26.10
2010,08,14,11,01,26.10
2010,08,14,11,02,26.10
2010,08,14,11,03,26.00
2010,08,14,11,04,26.00
2010,08,14,11,05,26.00
2010,08,14,11,06,26.00
2010,08,14,11,07,26.10
2010,08,14,11,08,26.20
2010,08,14,11,09,26.30
2010,08,14,11,10,26.30
2010,08,14,11,11,26.30
2010,08,14,11,12,26.20
2010,08,14,11,13,26.30
2010,08,14,11,14,26.30
2010,08,14,11,15,26.40
2010,08,14,11,16,26.50
2010,08,14,11,17,26.60
2010,08,14,11,18,26.60
2010,08,14,11,19,26.60
2010,08,14,11,20,26.60
2010,08,14,11,21,26.60
2010,08,14,11,22,26.60
2010,08,14,11,23,26.50
2010,08,14,11,24,26.40
2010,08,14,11,25,26.40
2010,08,14,11,26,26.50
2010,08,14,11,27,26.60
2010,08,14,11,28,26.70
2010,08,14,11,29,26.80
2010,08,14,11,30,26.90
2010,08,14,11,31,26.90
2010,08,14,11,32,26.90
2010,08,14,11,33,26.90
2010,08,14,11,34,26.80
2010,08,14,11,35,26.80
2010,08,14,11,36,26.70
2010,08,14,11,37,26.60
2010,08,14,11,38,26.60
2010,08,14,11,39,26.60
2010,08,14,11,40,26.70
2010,08,14,11,41,26.70
2010,08,14,11,42,26.90
2010,08,14,11,43,27.00
2010,08,14,11,44,27.10
2010,08,14,11,45,27.10
2010,08,14,11,46,27.20
2010,08,14,11,47,27.20
2010,08,14,11,48,27.20
2010,08,14,11,49,27.10
2010,08,14,11,50,27.00
2010,08,14,11,51,26.90
2010,08,14,11,52,26.90
2010,08,14,11,53,26.90
2010,08,14,11,54,26.90
2010,08,14,11,55,27.00
2010,08,14,11,56,27.10
2010,08,14,11,57,27.10
2010,08,14,11,58,27.20
2010,08,14,11,59,27.20
2010,08,14,12,00,27.20
2010,08,14,12,01,27.30
2010,08,14,12,02,27.30
2010,08,14,12,03,27.30
2010,08,14,12,04,27.40
2010,08,14,12,05,27.40
2010,08,14,12,06,27.40
2010,08,14,12,07,27.40
2010,08,14,12,08,27.40
2010,08,14,12,09,27.30
2010,08,14,12,10,27.30
2010,08,14,12,11,27.30
2010,08,14,12,12,27.20
2010,08,14,12,13,27.10
2010,08,14,12,14,27.10
2010,08,14,12,15,27.10
2010,08,14,12,16,27.00
2010,08,14,12,17,27.00
2010,08,14,12,18,27.10
2010,08,14,12,19,27.10
2010,08,14,12,20,27.20
2010,08,14,12,21,27.20
2010,08,14,12,22,27.10
2010,08,14,12,23,27.10
2010,08,14,12,24,27.10
2010,08,14,12,25,27.10
2010,08,14,12,26,27.10
2010,08,14,12,27,27.20
2010,08,14,12,28,27.30
2010,08,14,12,29,27.30
2010,08,14,12,30,27.20
2010,08,14,12,31,27.30
2010,08,14,12,32,27.40
2010,08,14,12,33,27.40
2010,08,14,12,34,27.50
2010,08,14,12,35,27.60
2010,08,14,12,36,27.60
2010,08,14,12,37,27.60
2010,08,14,12,38,27.60
2010,08,14,12,39,27.60
2010,08,14,12,40,27.60
2010,08,14,12,41,27.60
2010,08,14,12,42,27.60
2010,08,14,12,43,27.60
2010,08,14,12,44,27.60
2010,08,14,12,45,27.70
2010,08,14,12,46,27.70
2010,08,14,12,47,27.80
2010,08,14,12,48,27.90
2010,08,14,12,49,28.00
2010,08,14,12,50,28.00
2010,08,14,12,51,28.00
2010,08,14,12,52,28.10
2010,08,14,12,53,28.10
2010,08,14,12,54,28.10
2010,08,14,12,55,28.10
2010,08,14,12,56,28.10
2010,08,14,12,57,28.20
2010,08,14,12,58,28.30
2010,08,14,12,59,28.30
2010,08,14,13,00,28.40
2010,08,14,13,01,28.40
2010,08,14,13,02,28.40
2010,08,14,13,03,28.40
2010,08,14,13,04,28.30
2010,08,14,13,05,28.30
2010,08,14,13,06,28.30
2010,08,14,13,07,28.40
2010,08,14,13,08,28.40
2010,08,14,13,09,28.30
2010,08,14,13,10,28.40
2010,08,14,13,11,28.40
2010,08,14,13,12,28.40
2010,08,14,13,13,28.40
2010,08,14,13,14,28.40
2010,08,14,13,15,28.50
2010,08,14,13,16,28.60
2010,08,14,13,17,28.60
2010,08,14,13,18,28.60
2010,08,14,13,19,28.60
2010,08,14,13,20,28.60
2010,08,14,13,21,28.70
2010,08,14,13,22,28.90
2010,08,14,13,23,28.90
2010,08,14,13,24,28.90
2010,08,14,13,25,28.90
2010,08,14,13,26,28.90
2010,08,14,13,27,28.90
2010,08,14,13,28,28.90
2010,08,14,13,29,28.90
2010,08,14,13,30,28.90
2010,08,14,13,31,28.90
2010,08,14,13,32,28.90
2010,08,14,13,33,28.90
2010,08,14,13,34,28.90
2010,08,14,13,35,28.90
2010,08,14,13,36,28.90
2010,08,14,13,37,28.90
2010,08,14,13,38,28.90
2010,08,14,13,39,28.90
2010,08,14,13,40,28.90
2010,08,14,13,41,29.00
2010,08,14,13,42,29.10
2010,08,14,13,43,29.10
2010,08,14,13,44,29.00
2010,08,14,13,45,28.90
2010,08,14,13,46,28.90
2010,08,14,13,47,28.90
2010,08,14,13,48,28.90
2010,08,14,13,49,28.90
2010,08,14,13,50,28.90
2010,08,14,13,51,28.90
2010,08,14,13,52,28.90
2010,08,14,13,53,28.90
2010,08,14,13,54,28.90
2010,08,14,13,55,28.80
2010,08,14,13,56,28.80
2010,08,14,13,57,28.70
2010,08,14,13,58,28.70
2010,08,14,13,59,28.70
2010,08,14,14,00,28.70
2010,08,14,14,01,28.80
2010,08,14,14,02,28.80
2010,08,14,14,03,28.80
2010,08,14,14,04,28.80
2010,08,14,14,05,28.90
2010,08,14,14,06,28.90
2010,08,14,14,07,29.10
2010,08,14,14,08,29.10
2010,08,14,14,09,29.20
2010,08,14,14,10,29.20
2010,08,14,14,11,29.20
2010,08,14,14,12,29.20
2010,08,14,14,13,29.20
2010,08,14,14,14,29.20
2010,08,14,14,15,29.20
2010,08,14,14,16,29.30
2010,08,14,14,17,29.30
2010,08,14,14,18,29.30
2010,08,14,14,19,29.30
2010,08,14,14,20,29.30
2010,08,14,14,21,29.30
2010,08,14,14,22,29.30
2010,08,14,14,23,29.30
2010,08,14,14,24,29.30
2010,08,14,14,25,29.20
2010,08,14,14,26,29.20
2010,08,14,14,27,29.20
2010,08,14,14,28,29.30
2010,08,14,14,29,29.30
2010,08,14,14,30,29.40
2010,08,14,14,31,29.40
2010,08,14,14,32,29.40
2010,08,14,14,33,29.40
2010,08,14,14,34,29.50
2010,08,14,14,35,29.70
2010,08,14,14,36,29.80
2010,08,14,14,37,29.90
2010,08,14,14,38,29.90
2010,08,14,14,39,29.90
2010,08,14,14,40,29.90
2010,08,14,14,41,29.90
2010,08,14,14,42,29.90
2010,08,14,14,43,29.80
2010,08,14,14,44,29.80
2010,08,14,14,45,29.90
2010,08,14,14,46,30.00
2010,08,14,14,47,30.10
2010,08,14,14,48,30.20
2010,08,14,14,49,30.20
2010,08,14,14,50,30.10
2010,08,14,14,51,30.10
2010,08,14,14,52,30.00
2010,08,14,14,53,29.90
2010,08,14,14,54,29.80
2010,08,14,14,55,29.80
2010,08,14,14,56,29.90
2010,08,14,14,57,29.90
2010,08,14,14,58,30.00
2010,08,14,14,59,30.10
2010,08,14,15,00,29.90
2010,08,14,15,01,29.90
2010,08,14,15,02,29.90
2010,08,14,15,03,29.80
2010,08,14,15,04,29.80
2010,08,14,15,05,29.90
2010,08,14,15,06,30.00
2010,08,14,15,07,30.10
2010,08,14,15,08,30.10
2010,08,14,15,09,30.20
2010,08,14,15,10,30.20
2010,08,14,15,11,30.30
2010,08,14,15,12,30.30
2010,08,14,15,13,30.30
2010,08,14,15,14,30.20
2010,08,14,15,15,30.20
2010,08,14,15,16,30.10
2010,08,14,15,17,30.10
2010,08,14,15,18,30.10
2010,08,14,15,19,30.20
2010,08,14,15,20,30.20
2010,08,14,15,21,30.30
2010,08,14,15,22,30.40
2010,08,14,15,23,30.50
2010,08,14,15,24,30.60
2010,08,14,15,25,30.60
2010,08,14,15,26,30.50
2010,08,14,15,27,30.50
2010,08,14,15,28,30.60
2010,08,14,15,29,30.50
2010,08,14,15,30,30.60
2010,08,14,15,31,30.60
2010,08,14,15,32,30.60
2010,08,14,15,33,30.60
2010,08,14,15,34,30.60
2010,08,14,15,35,30.60
2010,08,14,15,36,30.50
2010,08,14,15,37,30.40
2010,08,14,15,38,30.40
2010,08,14,15,39,30.30
2010,08,14,15,40,30.30
2010,08,14,15,41,30.30
2010,08,14,15,42,30.40
2010,08,14,15,43,30.40
2010,08,14,15,44,30.50
2010,08,14,15,45,30.60
2010,08,14,15,46,30.70
2010,08,14,15,47,30.70
2010,08,14,15,48,30.80
2010,08,14,15,49,30.80
2010,08,14,15,50,30.90
2010,08,14,15,51,31.00
2010,08,14,15,52,31.10
2010,08,14,15,53,31.10
2010,08,14,15,54,31.00
2010,08,14,15,55,31.00
2010,08,14,15,56,31.10
2010,08,14,15,57,31.10
2010,08,14,15,58,31.10
2010,08,14,15,59,31.10
2010,08,14,16,00,31.00
2010,08,14,16,01,31.00
2010,08,14,16,02,31.00
2010,08,14,16,03,30.90
2010,08,14,16,04,30.90
2010,08,14,16,05,30.90
2010,08,14,16,06,30.90
2010,08,14,16,07,30.90
2010,08,14,16,08,30.90
2010,08,14,16,09,30.90
2010,08,14,16,10,30.90
2010,08,14,16,11,31.00
2010,08,14,16,12,31.10
2010,08,14,16,13,31.10
2010,08,14,16,14,31.10
2010,08,14,16,15,31.10
2010,08,14,16,16,31.00
2010,08,14,16,17,31.00
2010,08,14,16,18,31.00
2010,08,14,16,19,31.00
2010,08,14,16,20,31.10
2010,08,14,16,21,31.10
2010,08,14,16,22,31.10
2010,08,14,16,23,31.10
2010,08,14,16,24,31.10
2010,08,14,16,25,31.00
2010,08,14,16,26,31.00
2010,08,14,16,27,31.10
2010,08,14,16,28,31.10
2010,08,14,16,29,31.20
2010,08,14,16,30,31.20
2010,08,14,16,31,31.20
2010,08,14,16,32,31.20
2010,08,14,16,33,31.30
2010,08,14,16,34,31.30
2010,08,14,16,35,31.30
2010,08,14,16,36,31.30
2010,08,14,16,37,31.40
2010,08,14,16,38,31.40
2010,08,14,16,39,31.50
2010,08,14,16,40,31.60
2010,08,14,16,41,31.60
2010,08,14,16,42,31.50
2010,08,14,16,43,31.40
2010,08,14,16,44,31.40
2010,08,14,16,45,31.40
2010,08,14,16,46,31.50
2010,08,14,16,47,31.60
2010,08,14,16,48,31.60
2010,08,14,16,49,31.60
2010,08,14,16,50,31.60
2010,08,14,16,51,31.60
2010,08,14,16,52,31.60
2010,08,14,16,53,31.60
2010,08,14,16,54,31.60
2010,08,14,16,55,31.60
2010,08,14,16,56,31.50
2010,08,14,16,57,31.40
2010,08,14,16,58,31.50
2010,08,14,16,59,31.60
2010,08,14,17,00,31.60
2010,08,14,17,01,31.50
2010,08,14,17,02,31.40
2010,08,14,17,03,31.40
2010,08,14,17,04,31.40
2010,08,14,17,05,31.40
2010,08,14,17,06,31.60
2010,08,14,17,07,31.60
2010,08,14,17,08,31.60
2010,08,14,17,09,31.60
2010,08,14,17,10,31.60
2010,08,14,17,11,31.60
2010,08,14,17,12,31.60
2010,08,14,17,13,31.60
2010,08,14,17,14,31.70
2010,08,14,17,15,31.70
2010,08,14,17,16,31.70
2010,08,14,17,17,31.70
2010,08,14,17,18,31.70
2010,08,14,17,19,31.70